TimeEDT,TemperatureF,Dew PointF,Humidity,Sea Level PressureIn,VisibilityMPH,Wind Direction,Wind SpeedMPH,Gust SpeedMPH,PrecipitationIn,Events,Conditions,WindDirDegrees,DateUTC
12:54 AM,46.0,43.0,89,29.84,10.0,West,5.8,-,N/A,,Mostly Cloudy,260,2013-10-17 04:54:00
1:54 AM,44.1,42.1,93,29.86,10.0,WSW,3.5,-,N/A,,Mostly Cloudy,240,2013-10-17 05:54:00
2:54 AM,46.0,43.0,89,29.86,10.0,West,4.6,-,N/A,,Overcast,260,2013-10-17 06:54:00
3:54 AM,45.0,43.0,93,29.86,10.0,West,3.5,-,N/A,,Overcast,270,2013-10-17 07:54:00
4:54 AM,44.1,42.1,93,29.84,10.0,Calm,Calm,-,N/A,,Scattered Clouds,0,2013-10-17 08:54:00
5:54 AM,41.0,39.9,96,29.86,10.0,Calm,Calm,-,N/A,,Clear,0,2013-10-17 09:54:00
6:54 AM,39.9,39.0,97,29.86,10.0,Calm,Calm,-,N/A,,Clear,0,2013-10-17 10:54:00
7:54 AM,39.0,37.9,96,29.87,10.0,Calm,Calm,-,N/A,,Clear,0,2013-10-17 11:54:00
8:54 AM,43.0,41.0,93,29.87,10.0,South,5.8,-,N/A,,Clear,180,2013-10-17 12:54:00
9:54 AM,48.0,42.1,80,29.87,10.0,West,3.5,-,N/A,,Clear,260,2013-10-17 13:54:00
10:54 AM,51.1,42.1,71,29.86,10.0,West,6.9,-,N/A,,Clear,260,2013-10-17 14:54:00
11:54 AM,53.1,39.0,59,29.83,10.0,SW,4.6,-,N/A,,Partly Cloudy,230,2013-10-17 15:54:00
12:54 PM,52.0,35.1,53,29.82,10.0,NW,3.5,-,N/A,,Overcast,320,2013-10-17 16:54:00
1:54 PM,52.0,35.1,53,29.80,10.0,Calm,Calm,-,N/A,,Overcast,0,2013-10-17 17:54:00
2:54 PM,52.0,37.0,57,29.78,10.0,Calm,Calm,-,N/A,,Overcast,0,2013-10-17 18:54:00
3:54 PM,52.0,37.0,57,29.77,10.0,Calm,Calm,-,0.00,Rain,Light Rain,0,2013-10-17 19:54:00
4:54 PM,48.0,45.0,89,29.76,9.0,East,3.5,-,0.01,Rain,Light Rain,100,2013-10-17 20:54:00
5:28 PM,48.2,46.4,93,29.75,7.0,East,3.5,-,0.02,Rain,Light Rain,90,2013-10-17 21:28:00
5:54 PM,46.9,45.0,93,29.76,10.0,East,3.5,-,0.03,Rain,Light Rain,90,2013-10-17 21:54:00
6:35 PM,46.4,46.4,100,29.74,8.0,Calm,Calm,-,0.02,Rain,Light Rain,0,2013-10-17 22:35:00
6:54 PM,46.9,45.0,93,29.76,9.0,NNE,3.5,-,0.03,Rain,Light Rain,20,2013-10-17 22:54:00
7:54 PM,46.0,45.0,96,29.76,8.0,WSW,4.6,-,0.01,Rain,Light Rain,240,2013-10-17 23:54:00
8:06 PM,46.4,44.6,93,29.75,4.0,WSW,5.8,-,0.01,Rain,Light Rain,240,2013-10-18 00:06:00
8:16 PM,44.6,42.8,93,29.75,7.0,Variable,4.6,-,0.02,Rain,Light Rain,0,2013-10-18 00:16:00
8:23 PM,44.6,42.8,93,29.75,8.0,West,8.1,-,0.02,Rain,Light Rain,270,2013-10-18 00:23:00
8:54 PM,44.1,43.0,96,29.77,7.0,West,5.8,-,0.04,Rain,Light Rain,280,2013-10-18 00:54:00
9:10 PM,44.6,42.8,93,29.75,10.0,West,5.8,-,0.01,Rain,Light Rain,270,2013-10-18 01:10:00
9:54 PM,44.1,43.0,96,29.77,10.0,Calm,Calm,-,0.02,Rain,Light Rain,0,2013-10-18 01:54:00
10:54 PM,44.1,43.0,96,29.77,10.0,West,3.5,-,0.00,,Overcast,260,2013-10-18 02:54:00
11:54 PM,43.0,42.1,97,29.76,10.0,Calm,Calm,-,N/A,,Mostly Cloudy,0,2013-10-18 03:54:00